Wind_Speed
26 24 21 18 16 15 14 13 12 10 9 9 8 8 8 8 9 10 11 13 14 14 15 17 17 18 19 19 20 21 21 21 21 21 20 19 18 17 16 16 16 17 17 18
25 22 20 18 16 15 12 12 11 9 8 9 8 7 7 7 8 9 11 12 14 15 16 17 18 18 19 20 21 22 22 22 21 20 20 19 18 17 16 16 15 15 15 16
21 20 19 17 15 14 12 10 9 8 8 8 7 6 5 5 7 8 10 12 14 15 15 16 17 18 19 20 21 22 22 22 21 21 20 20 19 18 17 17 16 15 14 14
21 19 18 16 14 12 11 9 8 8 7 7 6 4 3 3 6 8 10 12 13 13 14 15 16 17 19 20 21 22 23 23 22 22 21 21 20 19 18 17 17 15 14 12
19 18 16 14 11 10 9 8 8 8 7 6 4 2 2 3 5 7 9 10 11 12 13 15 16 17 19 20 21 22 23 23 23 22 22 21 20 20 19 18 17 16 14 12
18 17 15 12 10 10 9 8 8 7 6 5 4 1 2 3 5 6 7 8 9 11 12 14 16 17 18 20 21 23 23 24 24 23 23 22 21 21 20 19 18 16 15 13
17 16 13 11 10 10 9 9 9 7 7 6 4 1 2 3 4 4 5 7 9 10 12 13 15 17 18 19 21 23 23 24 24 24 23 23 22 22 21 20 19 17 16 14
15 13 12 10 9 9 9 9 9 8 8 7 4 2 1 1 2 3 5 6 8 9 11 13 14 16 18 19 21 22 23 24 24 24 24 23 23 22 22 21 20 18 17 15
15 13 12 10 8 8 7 7 7 8 8 7 5 3 2 1 1 2 4 5 7 9 11 12 14 15 17 19 20 21 23 23 24 24 24 24 23 23 22 21 21 20 18 16
13 11 10 8 7 7 6 7 7 7 7 6 5 4 3 2 1 1 3 4 6 8 10 12 13 15 16 18 19 20 22 23 23 24 24 24 24 23 22 21 21 21 19 18
10 10 9 9 8 7 7 7 7 7 7 6 5 4 3 3 2 1 1 3 5 7 9 11 13 14 16 17 19 20 21 22 23 24 24 24 23 22 22 22 21 21 20 19
11 10 9 9 9 8 8 8 8 8 7 7 5 4 4 3 3 1 1 3 5 7 9 11 13 14 16 17 18 19 20 22 23 23 23 24 23 22 22 22 21 21 20 19
11 11 10 10 9 9 9 8 8 8 8 7 6 5 5 4 3 2 1 3 5 7 9 11 13 14 16 17 18 19 20 21 22 22 23 23 23 23 22 22 22 21 21 20
11 11 11 11 10 10 9 9 8 8 8 7 6 5 5 4 4 3 3 4 5 7 9 11 12 14 15 17 18 19 19 20 21 22 22 22 22 22 22 22 21 21 21 20
11 11 12 11 11 11 10 9 9 9 9 8 7 6 6 5 5 4 4 5 6 8 9 11 12 14 15 17 18 18 19 20 21 21 21 21 22 22 22 22 21 21 21 21
11 11 12 11 11 11 10 9 10 10 9 8 8 7 6 6 6 5 5 5 7 8 10 11 13 14 15 17 17 18 19 20 20 21 21 21 21 21 21 21 21 21 21 21
11 12 12 12 12 12 10 10 11 10 10 9 8 8 7 6 6 6 6 7 8 9 11 12 13 14 15 17 18 18 19 19 20 20 21 21 21 21 21 21 21 21 21 20
11 12 12 12 13 13 10 12 12 11 10 10 9 9 8 7 7 7 8 8 9 10 12 13 14 15 16 17 18 18 19 19 20 20 21 21 21 21 21 21 20 20 20 20
13 12 13 13 13 12 12 12 12 12 11 11 11 10 9 9 9 9 10 10 11 12 13 14 15 16 17 17 18 19 19 20 20 20 21 21 21 21 21 21 20 20 20 20
14 14 14 14 14 12 12 13 14 13 12 12 12 11 11 11 11 11 11 12 13 14 15 15 16 16 17 18 18 19 20 20 20 20 21 21 20 20 21 21 21 20 20 19
17 16 16 16 16 13 13 15 15 14 13 13 13 13 12 12 13 13 13 14 14 15 16 16 16 17 18 18 19 20 21 21 21 21 21 21 21 21 21 21 21 21 20 19
18 18 18 18 18 15 16 16 16 16 16 15 15 15 15 15 15 15 16 16 16 17 17 17 17 18 19 19 20 21 21 22 22 22 22 22 22 22 22 21 21 21 20 20
20 20 21 21 19 18 19 19 18 18 18 17 17 17 17 17 17 17 18 18 18 18 18 18 19 19 20 21 21 22 23 23 23 23 23 23 23 23 22 22 21 21 21 20
24 24 24 23 22 21 21 21 21 21 21 20 20 20 19 19 19 19 20 20 20 20 19 20 20 21 21 22 22 23 24 24 24 24 24 24 24 23 23 22 22 22 21 21
26 27 27 27 25 25 24 24 24 24 23 23 23 22 22 21 21 21 21 21 22 21 21 22 22 23 23 23 24 25 25 25 25 26 26 25 25 24 24 23 23 23 23 22
28 29 30 29 28 29 27 27 27 27 26 25 25 25 24 24 24 24 24 24 23 23 24 24 24 24 25 25 26 26 26 26 27 27 27 26 26 25 25 24 24 24 24 23
Wind_Direction
220 224 228 236 242 251 261 267 275 285 296 309 322 329 333 345 352 0 7 10 9 7 5 4 4 3 2 359 356 353 350 347 346 345 343 339 335 330 322 312 302 292 283 273
216 219 223 229 237 247 257 261 268 284 301 314 324 334 342 351 2 10 12 12 10 8 7 6 6 6 4 2 0 358 355 353 351 350 349 346 343 340 334 326 315 303 292 281
213 215 220 226 236 243 252 261 268 285 302 312 320 331 339 357 11 17 17 16 13 10 8 7 7 6 5 3 3 2 360 358 356 354 352 349 347 344 340 335 329 318 303 289
205 210 217 223 232 241 248 260 269 280 286 293 297 313 345 8 20 25 22 18 13 9 8 8 7 6 4 4 4 2 1 1 360 358 356 354 352 348 344 340 335 329 318 300
200 205 213 218 228 239 247 259 264 265 265 269 277 307 34 39 35 30 24 16 12 11 10 9 8 6 6 6 5 4 3 3 2 1 0 359 356 353 349 345 342 337 328 315
196 202 210 216 224 236 246 253 260 257 252 247 251 243 70 57 41 33 25 18 15 13 11 10 9 8 7 7 5 5 5 5 4 3 2 1 359 357 355 352 349 346 339 328
192 197 204 213 226 236 244 250 255 249 243 235 234 187 92 56 44 42 32 22 17 14 10 8 7 7 7 6 6 6 6 6 6 6 5 4 3 2 360 357 354 351 347 339
190 191 199 209 224 233 239 246 248 245 240 236 227 185 144 57 50 45 34 24 17 11 7 5 5 5 6 6 6 7 7 7 8 8 7 7 6 5 5 4 2 0 357 351
193 194 200 209 221 233 240 245 240 239 239 238 226 203 185 169 72 46 32 18 10 6 4 3 3 4 5 5 6 7 8 8 9 10 10 10 9 8 8 8 7 6 4 3
191 196 201 207 219 228 234 234 231 233 237 233 224 212 203 196 148 52 14 4 0 359 0 2 3 4 4 4 5 6 6 7 9 10 10 10 10 11 10 10 12 12 10 7
200 201 203 210 218 224 227 228 230 232 233 234 224 210 204 190 178 181 347 354 355 357 359 1 2 1 0 0 1 3 4 5 7 8 9 9 10 11 12 13 12 12 12 11
208 214 219 219 223 227 227 223 224 228 234 242 237 214 210 194 187 199 328 353 355 358 358 358 358 357 356 356 357 359 1 2 5 6 7 9 9 10 11 12 12 12 12 13
222 225 230 229 230 232 228 226 225 227 231 236 233 216 210 195 198 217 312 341 345 348 350 352 353 354 353 354 354 356 357 359 1 4 5 7 8 9 9 10 11 11 12 12
232 231 235 237 237 235 230 229 230 231 234 232 226 221 216 214 222 248 291 316 329 336 341 345 347 348 348 349 351 352 354 355 357 360 2 3 5 7 8 8 9 10 10 11
239 240 242 242 242 241 236 234 234 236 235 232 224 220 221 228 239 258 281 302 317 327 334 337 339 342 343 345 347 349 351 353 354 355 358 360 2 3 5 6 7 9 10 11
241 240 240 242 245 243 236 234 236 237 235 230 223 219 227 234 245 258 276 294 310 320 326 330 333 336 339 342 343 345 347 349 350 352 354 356 358 0 2 3 4 6 8 9
239 239 239 242 245 245 239 238 235 234 234 231 227 229 234 238 245 259 275 291 303 313 319 323 327 330 333 337 339 341 343 345 347 350 352 353 355 357 359 360 1 3 3 5
240 243 243 242 244 246 237 237 236 233 233 234 235 238 242 246 255 265 276 287 296 305 312 317 321 325 328 331 334 336 339 341 344 347 349 351 353 355 356 357 358 359 360 0
241 241 242 241 241 239 236 239 239 237 235 238 240 242 246 253 261 267 276 285 292 300 307 312 316 320 324 327 329 332 334 337 339 341 344 346 348 351 352 353 354 354 355 356
247 246 248 246 245 237 235 240 241 241 240 242 245 249 253 256 262 269 276 283 290 297 303 308 313 316 320 323 325 328 331 333 335 337 339 341 342 344 346 348 350 350 351 351
252 251 251 251 250 245 241 243 244 246 243 244 248 252 255 260 264 269 275 281 288 294 299 304 309 312 316 319 322 324 326 328 330 332 333 335 336 338 339 341 343 345 347 347
253 253 253 253 254 252 248 247 248 248 246 248 250 254 257 261 265 270 274 280 286 291 296 301 305 309 312 314 317 319 322 324 325 327 328 329 330 332 334 335 337 338 340 341
254 254 255 255 256 255 254 254 252 251 250 252 254 257 259 263 266 270 275 280 284 288 292 297 301 305 307 310 312 315 318 320 321 322 323 325 326 327 328 329 330 332 333 334
254 255 256 256 256 255 255 255 255 255 254 255 257 258 261 264 267 271 275 278 282 285 289 293 297 301 303 306 308 311 313 315 317 318 319 320 321 322 323 324 324 325 325 326
254 256 258 258 258 257 256 257 257 258 258 259 260 261 263 265 267 270 273 277 280 283 286 290 293 297 299 301 304 306 309 311 313 314 315 317 317 317 318 318 319 319 319 319
255 256 257 258 257 257 257 258 259 260 261 261 262 263 264 266 268 270 272 274 277 280 283 286 290 293 296 298 300 302 304 306 309 310 311 312 312 313 313 313 314 315 315 315
Height
5859 5863 5866 5869 5870 5872 5873 5873 5873 5873 5873 5872 5870 5869 5867 5865 5863 5861 5859 5857 5855 5852 5849 5846 5842 5838 5834 5830 5826 5821 5817 5812 5808 5803 5799 5795 5791 5788 5785 5782 5780 5778 5777 5777
5856 5861 5864 5865 5867 5869 5870 5871 5871 5871 5870 5869 5867 5867 5865 5863 5861 5859 5857 5856 5854 5851 5848 5845 5841 5838 5834 5830 5825 5821 5816 5811 5806 5802 5797 5793 5789 5785 5781 5778 5776 5774 5772 5771
5854 5858 5860 5863 5865 5866 5867 5868 5868 5868 5867 5866 5865 5865 5864 5862 5860 5858 5856 5854 5852 5850 5847 5844 5841 5837 5834 5829 5825 5820 5815 5810 5805 5800 5796 5791 5786 5782 5779 5775 5772 5770 5768 5766
5851 5854 5857 5860 5862 5864 5865 5865 5865 5865 5865 5865 5865 5864 5863 5861 5859 5857 5855 5853 5852 5850 5847 5845 5841 5838 5834 5830 5825 5820 5815 5810 5804 5799 5794 5789 5785 5780 5777 5773 5769 5766 5764 5762
5849 5852 5855 5858 5860 5861 5862 5862 5863 5863 5863 5863 5863 5862 5862 5860 5858 5857 5855 5854 5852 5850 5848 5845 5841 5838 5834 5830 5825 5820 5815 5809 5804 5799 5794 5788 5784 5779 5775 5771 5767 5763 5760 5758
5848 5851 5853 5856 5858 5859 5860 5860 5861 5861 5861 5862 5861 5860 5860 5858 5857 5856 5855 5854 5852 5850 5848 5845 5841 5838 5834 5830 5825 5820 5815 5809 5804 5798 5793 5788 5783 5778 5773 5769 5765 5761 5758 5755
5847 5850 5852 5854 5855 5857 5858 5859 5860 5859 5859 5859 5859 5858 5859 5857 5857 5856 5855 5854 5852 5850 5848 5845 5842 5838 5834 5830 5825 5820 5815 5810 5804 5799 5793 5788 5783 5777 5772 5768 5763 5759 5756 5753
5845 5849 5851 5852 5853 5854 5855 5857 5858 5858 5858 5857 5857 5856 5857 5856 5855 5855 5854 5853 5851 5850 5847 5845 5842 5838 5835 5830 5826 5821 5816 5810 5805 5799 5794 5788 5783 5777 5772 5768 5763 5758 5754 5751
5845 5848 5849 5851 5852 5853 5853 5854 5855 5856 5856 5855 5855 5855 5855 5855 5854 5854 5853 5852 5851 5849 5847 5845 5842 5838 5834 5830 5826 5821 5816 5811 5806 5800 5794 5789 5783 5778 5773 5768 5763 5758 5754 5750
5844 5847 5848 5849 5850 5851 5852 5852 5853 5854 5853 5853 5854 5854 5855 5854 5854 5853 5852 5851 5850 5849 5847 5844 5841 5838 5834 5830 5826 5822 5817 5812 5806 5801 5795 5790 5784 5779 5774 5769 5764 5759 5755 5751
5844 5846 5847 5848 5849 5849 5850 5850 5850 5851 5852 5852 5852 5855 5854 5853 5853 5853 5852 5851 5850 5848 5846 5844 5841 5838 5834 5830 5826 5822 5817 5812 5807 5802 5796 5791 5785 5780 5775 5770 5765 5761 5756 5751
5843 5844 5845 5846 5847 5847 5848 5848 5849 5850 5850 5850 5851 5855 5852 5852 5852 5852 5851 5850 5849 5847 5845 5843 5840 5837 5834 5830 5826 5822 5817 5812 5807 5802 5797 5792 5786 5781 5777 5772 5767 5762 5758 5753
5842 5843 5844 5845 5847 5847 5846 5846 5847 5847 5848 5848 5849 5853 5851 5851 5851 5850 5850 5849 5848 5846 5844 5842 5839 5836 5833 5829 5825 5821 5817 5813 5808 5803 5798 5793 5788 5783 5778 5773 5768 5764 5759 5755
5840 5841 5843 5844 5843 5843 5844 5844 5845 5845 5846 5846 5847 5849 5849 5849 5849 5849 5848 5848 5846 5845 5843 5841 5838 5835 5832 5828 5825 5821 5817 5812 5808 5803 5798 5794 5789 5784 5779 5774 5770 5765 5760 5756
5838 5839 5839 5840 5841 5841 5842 5842 5843 5843 5844 5845 5846 5846 5847 5847 5847 5847 5847 5846 5845 5844 5842 5840 5837 5834 5831 5827 5824 5820 5816 5812 5808 5803 5799 5794 5790 5785 5780 5776 5771 5766 5762 5757
5836 5837 5837 5838 5838 5838 5839 5840 5841 5841 5842 5842 5843 5845 5845 5845 5845 5845 5845 5844 5843 5842 5840 5838 5835 5833 5830 5826 5823 5819 5815 5811 5807 5803 5799 5794 5790 5785 5781 5776 5772 5768 5763 5759
5833 5834 5835 5836 5835 5836 5837 5838 5838 5839 5839 5840 5841 5843 5842 5843 5843 5843 5842 5842 5841 5840 5838 5836 5834 5831 5828 5825 5821 5818 5814 5810 5806 5802 5798 5794 5790 5785 5781 5777 5773 5768 5764 5760
5831 5831 5832 5833 5834 5834 5838 5835 5836 5836 5837 5838 5839 5839 5840 5840 5840 5840 5840 5839 5838 5837 5836 5834 5831 5829 5826 5823 5819 5816 5813 5809 5805 5801 5798 5794 5790 5785 5781 5777 5773 5769 5765 5761
5828 5829 5829 5830 5830 5831 5834 5833 5833 5834 5835 5835 5836 5836 5837 5837 5837 5837 5837 5836 5835 5834 5833 5831 5828 5826 5823 5820 5817 5814 5811 5807 5804 5800 5796 5793 5789 5785 5781 5777 5773 5769 5765 5761
5825 5826 5826 5827 5827 5828 5831 5830 5830 5832 5832 5832 5832 5833 5834 5834 5834 5834 5833 5833 5832 5830 5829 5827 5825 5823 5820 5817 5814 5811 5808 5805 5801 5798 5795 5791 5787 5784 5780 5776 5772 5768 5764 5761
5822 5822 5823 5823 5823 5825 5827 5826 5827 5829 5830 5829 5829 5829 5830 5830 5831 5830 5829 5829 5828 5827 5825 5823 5821 5819 5816 5814 5811 5808 5805 5802 5799 5796 5792 5789 5785 5782 5778 5775 5771 5767 5763 5760
5818 5818 5818 5818 5819 5823 5821 5822 5823 5824 5824 5824 5824 5825 5825 5826 5825 5825 5825 5824 5823 5822 5821 5819 5817 5815 5813 5810 5807 5804 5802 5799 5796 5792 5789 5786 5783 5779 5776 5772 5769 5765 5762 5759
5812 5814 5813 5814 5817 5816 5816 5816 5817 5818 5819 5819 5820 5820 5820 5821 5820 5820 5820 5819 5818 5817 5816 5814 5812 5810 5808 5806 5803 5800 5797 5794 5792 5789 5785 5782 5779 5776 5773 5769 5766 5763 5760 5757
5806 5806 5807 5808 5809 5810 5810 5810 5811 5811 5812 5813 5814 5814 5815 5815 5815 5814 5814 5813 5812 5811 5810 5809 5807 5805 5803 5801 5798 5796 5793 5790 5787 5784 5781 5778 5775 5772 5769 5766 5763 5760 5757 5754
5799 5799 5799 5800 5802 5802 5803 5803 5804 5805 5805 5806 5807 5807 5808 5808 5808 5808 5807 5807 5806 5805 5804 5803 5801 5799 5797 5795 5793 5791 5788 5785 5782 5779 5776 5773 5770 5767 5764 5761 5759 5756 5753 5750
5792 5791 5791 5792 5793 5793 5795 5795 5796 5797 5798 5798 5799 5800 5800 5800 5800 5800 5800 5800 5799 5798 5797 5796 5795 5793 5791 5789 5787 5785 5782 5780 5777 5774 5771 5768 5765 5762 5760 5757 5754 5751 5748 5746